TimeEST,TemperatureF,Dew PointF,Humidity,Sea Level PressureIn,VisibilityMPH,Wind Direction,Wind SpeedMPH,Gust SpeedMPH,PrecipitationIn,Events,Conditions,WindDirDegrees,DateUTC
12:52 AM,30.0,27.0,88,30.31,10.0,Calm,Calm,-,N/A,,Clear,0,2012-11-16 05:52:00
1:52 AM,28.9,26.1,89,30.32,10.0,Calm,Calm,-,N/A,,Clear,0,2012-11-16 06:52:00
2:52 AM,28.9,26.1,89,30.31,10.0,Calm,Calm,-,N/A,,Clear,0,2012-11-16 07:52:00
3:52 AM,28.9,26.1,89,30.32,10.0,Calm,Calm,-,N/A,,Clear,0,2012-11-16 08:52:00
4:52 AM,30.9,26.1,82,30.32,10.0,Calm,Calm,-,N/A,,Clear,0,2012-11-16 09:52:00
5:52 AM,28.9,26.1,89,30.32,10.0,Calm,Calm,-,N/A,,Clear,0,2012-11-16 10:52:00
6:52 AM,28.9,26.1,89,30.32,10.0,Calm,Calm,-,N/A,,Clear,0,2012-11-16 11:52:00
7:52 AM,30.9,27.0,85,30.35,10.0,Calm,Calm,-,N/A,,Clear,0,2012-11-16 12:52:00
8:52 AM,35.1,28.0,76,30.35,10.0,NNW,3.5,-,N/A,,Clear,340,2012-11-16 13:52:00
9:52 AM,41.0,25.0,53,30.35,10.0,Calm,Calm,-,N/A,,Clear,0,2012-11-16 14:52:00
10:52 AM,43.0,24.1,47,30.33,10.0,Calm,Calm,-,N/A,,Clear,0,2012-11-16 15:52:00
11:52 AM,43.0,23.0,45,30.32,10.0,NNE,4.6,-,N/A,,Clear,30,2012-11-16 16:52:00
12:52 PM,45.0,21.9,40,30.31,10.0,Calm,Calm,-,N/A,,Clear,0,2012-11-16 17:52:00
1:52 PM,45.0,21.9,40,30.31,10.0,Calm,Calm,-,N/A,,Clear,0,2012-11-16 18:52:00
2:52 PM,45.0,23.0,42,30.32,10.0,Calm,Calm,-,N/A,,Clear,0,2012-11-16 19:52:00
3:52 PM,45.0,23.0,42,30.33,10.0,Calm,Calm,-,N/A,,Clear,0,2012-11-16 20:52:00
4:52 PM,41.0,25.0,53,30.35,10.0,Calm,Calm,-,N/A,,Clear,0,2012-11-16 21:52:00
5:52 PM,36.0,26.1,67,30.37,10.0,Calm,Calm,-,N/A,,Clear,0,2012-11-16 22:52:00
6:52 PM,34.0,24.1,67,30.38,10.0,Calm,Calm,-,N/A,,Clear,0,2012-11-16 23:52:00
7:52 PM,33.1,25.0,72,30.39,10.0,Calm,Calm,-,N/A,,Clear,0,2012-11-17 00:52:00
8:52 PM,30.9,25.0,79,30.40,10.0,Calm,Calm,-,N/A,,Clear,0,2012-11-17 01:52:00
9:52 PM,30.9,24.1,76,30.42,10.0,Calm,Calm,-,N/A,,Clear,0,2012-11-17 02:52:00
10:52 PM,30.0,24.1,79,30.44,10.0,Calm,Calm,-,N/A,,Clear,0,2012-11-17 03:52:00
11:52 PM,28.9,23.0,78,30.46,10.0,Calm,Calm,-,N/A,,Clear,0,2012-11-17 04:52:00